When you browse on this site, cookies collect data to enhance your experience and personalize the content and advertising you see.
Visit our Privacy Policy to learn more. By continuing to use the site, you agree to this use of cookies and data.
  • In Hungary
  • List of Countries
  • For 7 days
  • Water Temperature
  • Satellite Maps
  • Weather Map
  • News
  • Weather Widgets
  • user-avatar
    Login

    Hourly Weather Kopiec

    Today, 16 January, Wednesday

    Time Temperature Precipitation Wind Pressure Humidity
    00:00 0°C° 0.4 mm 9 mps 732 mmHg 92%
    01:00 0°C° 0 mm 7 mps 732 mmHg 94%
    02:00 0°C° 0.4 mm 7 mps 732 mmHg 94%
    03:00 0°C° 0.4 mm 7 mps 732 mmHg 93%
    04:00 0°C° 0.4 mm 8 mps 733 mmHg 93%
    05:00 0°C° 0.3 mm 7 mps 733 mmHg 94%
    06:00 +1°C° 0.3 mm 6 mps 734 mmHg 95%
    07:00 +1°C° 0.3 mm 6 mps 734 mmHg 95%
    08:00 +1°C° 0.1 mm 6 mps 734 mmHg 95%
    09:00 +1°C° 0.1 mm 6 mps 735 mmHg 95%
    10:00 0°C° 0.1 mm 7 mps 735 mmHg 95%
    11:00 +1°C° 0.1 mm 6 mps 735 mmHg 94%
    12:00 +1°C° 0.1 mm 6 mps 736 mmHg 94%
    13:00 +1°C° 0.1 mm 5 mps 736 mmHg 94%
    14:00 +1°C° 0 mm 5 mps 736 mmHg 93%
    15:00 +1°C° 0 mm 4 mps 736 mmHg 92%
    16:00 0°C° 0 mm 4 mps 736 mmHg 92%
    17:00 0°C° 0 mm 4 mps 736 mmHg 91%
    18:00 0°C° 0 mm 4 mps 736 mmHg 90%
    19:00 0°C° 0 mm 4 mps 736 mmHg 90%
    20:00 0°C° 0 mm 4 mps 735 mmHg 90%
    21:00 0°C° 0 mm 5 mps 735 mmHg 90%
    22:00 -1°C° 0 mm 5 mps 735 mmHg 90%
    23:00 -1°C° 0 mm 5 mps 735 mmHg 88%

    Tomorrow, 17 January, Thursday

    Time Temperature Precipitation Wind Pressure Humidity
    00:00 -2°C° 0 mm 6 mps 734 mmHg 86%
    01:00 -2°C° 0 mm 6 mps 734 mmHg 84%
    02:00 -1°C° 0 mm 7 mps 733 mmHg 80%
    03:00 -1°C° 0 mm 7 mps 733 mmHg 75%
    04:00 -1°C° 0 mm 8 mps 732 mmHg 71%
    05:00 -1°C° 0 mm 8 mps 732 mmHg 70%
    06:00 -1°C° 0 mm 8 mps 732 mmHg 69%
    07:00 -1°C° 0 mm 7 mps 732 mmHg 68%
    08:00 0°C° 0 mm 8 mps 732 mmHg 70%
    09:00 0°C° 0 mm 8 mps 732 mmHg 72%
    10:00 0°C° 0 mm 8 mps 732 mmHg 74%
    11:00 0°C° 0 mm 7 mps 732 mmHg 75%
    12:00 +2°C° 0 mm 7 mps 732 mmHg 77%
    13:00 +2°C° 0 mm 6 mps 732 mmHg 79%
    14:00 +2°C° 0 mm 6 mps 732 mmHg 80%
    15:00 +1°C° 0 mm 6 mps 732 mmHg 82%
    16:00 +1°C° 0 mm 6 mps 732 mmHg 83%
    17:00 0°C° 0 mm 7 mps 732 mmHg 83%
    18:00 0°C° 0 mm 7 mps 732 mmHg 84%
    19:00 0°C° 0 mm 8 mps 732 mmHg 84%
    20:00 0°C° 0.1 mm 7 mps 732 mmHg 83%
    21:00 0°C° 0.1 mm 7 mps 732 mmHg 83%
    22:00 0°C° 0.1 mm 7 mps 732 mmHg 83%
    23:00 -1°C° 0.1 mm 7 mps 733 mmHg 81%

    Day after tomorrow, 18 January, Friday

    Time Temperature Precipitation Wind Pressure Humidity
    00:00 -1°C° 0.1 mm 6 mps 733 mmHg 79%
    01:00 -1°C° 0.1 mm 5 mps 734 mmHg 77%
    02:00 -1°C° 0 mm 5 mps 734 mmHg 76%
    03:00 -3°C° 0 mm 6 mps 734 mmHg 75%
    04:00 -3°C° 0 mm 6 mps 734 mmHg 74%
    05:00 -3°C° 0 mm 7 mps 734 mmHg 72%
    06:00 -3°C° 0 mm 7 mps 735 mmHg 70%
    07:00 -5°C° 0 mm 8 mps 735 mmHg 69%
    08:00 -4°C° 0.1 mm 8 mps 736 mmHg 70%
    09:00 -4°C° 0.1 mm 9 mps 737 mmHg 72%
    10:00 -4°C° 0.1 mm 9 mps 738 mmHg 74%
    11:00 -4°C° 0 mm 8 mps 739 mmHg 73%
    12:00 -4°C° 0 mm 8 mps 739 mmHg 73%
    13:00 -2°C° 0 mm 7 mps 740 mmHg 72%
    14:00 -3°C° 0.1 mm 6 mps 741 mmHg 74%
    15:00 -2°C° 0.1 mm 5 mps 742 mmHg 76%
    16:00 -2°C° 0.1 mm 4 mps 742 mmHg 77%
    17:00 -2°C° 0 mm 4 mps 743 mmHg 79%
    18:00 -2°C° 0 mm 3 mps 743 mmHg 81%
    19:00 -3°C° 0 mm 2 mps 744 mmHg 83%
    20:00 -3°C° 0 mm 2 mps 744 mmHg 83%
    21:00 -3°C° 0 mm 2 mps 745 mmHg 84%
    22:00 -3°C° 0 mm 2 mps 745 mmHg 84%
    23:00 -3°C° 0 mm 2 mps 745 mmHg 84%

    19 January, Saturday

    Time Temperature Precipitation Wind Pressure Humidity
    00:00 -3°C° 0 mm 2 mps 745 mmHg 85%
    01:00 -3°C° 0 mm 2 mps 745 mmHg 85%
    02:00 -3°C° 0 mm 2 mps 745 mmHg 84%
    03:00 -3°C° 0 mm 2 mps 745 mmHg 84%
    04:00 -3°C° 0 mm 2 mps 745 mmHg 84%
    05:00 -3°C° 0 mm 2 mps 745 mmHg 83%
    06:00 -3°C° 0 mm 2 mps 745 mmHg 83%
    07:00 -3°C° 0 mm 2 mps 745 mmHg 82%
    08:00 -2°C° 0 mm 2 mps 745 mmHg 79%
    09:00 -2°C° 0 mm 2 mps 745 mmHg 77%
    10:00 -2°C° 0 mm 2 mps 745 mmHg 74%
    11:00 -1°C° 0 mm 2 mps 745 mmHg 71%
    12:00 -1°C° 0 mm 2 mps 744 mmHg 68%
    13:00 +2°C° 0 mm 1 mps 744 mmHg 66%
    14:00 +1°C° 0 mm 1 mps 744 mmHg 68%
    15:00 +1°C° 0 mm 1 mps 744 mmHg 71%
    16:00 0°C° 0 mm 1 mps 743 mmHg 74%
    17:00 0°C° 0 mm 1 mps 743 mmHg 75%
    18:00 0°C° 0 mm 1 mps 743 mmHg 76%
    19:00 0°C° 0 mm 1 mps 744 mmHg 76%
    20:00 0°C° 0 mm 1 mps 744 mmHg 76%
    21:00 -1°C° 0 mm 1 mps 744 mmHg 75%
    22:00 -1°C° 0 mm 1 mps 744 mmHg 74%
    23:00 -1°C° 0 mm 1 mps 743 mmHg 74%

    20 January, Sunday

    Time Temperature Precipitation Wind Pressure Humidity
    00:00 -1°C° 0 mm 1 mps 743 mmHg 74%
    01:00 -1°C° 0 mm 1 mps 743 mmHg 73%
    02:00 -1°C° 0 mm 1 mps 743 mmHg 73%
    03:00 -1°C° 0 mm 1 mps 743 mmHg 72%
    04:00 -2°C° 0 mm 0 mps 743 mmHg 72%
    05:00 -3°C° 0 mm 0 mps 743 mmHg 71%
    06:00 -3°C° 0 mm 0 mps 743 mmHg 71%
    07:00 -2°C° 0 mm 1 mps 743 mmHg 71%
    08:00 -1°C° 0 mm 1 mps 744 mmHg 69%
    09:00 -2°C° 0 mm 0 mps 744 mmHg 67%
    10:00 -1°C° 0 mm 0 mps 744 mmHg 65%
    11:00 0°C° 0 mm 1 mps 744 mmHg 63%
    12:00 +1°C° 0 mm 1 mps 744 mmHg 62%
    13:00 -1°C° 0 mm 2 mps 744 mmHg 60%
    14:00 -1°C° 0 mm 2 mps 744 mmHg 63%
    15:00 -2°C° 0 mm 2 mps 744 mmHg 66%
    16:00 -2°C° 0 mm 2 mps 744 mmHg 69%
    17:00 -2°C° 0 mm 2 mps 745 mmHg 70%
    18:00 -2°C° 0 mm 2 mps 745 mmHg 71%
    19:00 -4°C° 0 mm 3 mps 746 mmHg 73%
    20:00 -4°C° 0 mm 3 mps 746 mmHg 76%
    21:00 -4°C° 0 mm 3 mps 746 mmHg 79%
    22:00 -4°C° 0 mm 3 mps 747 mmHg 82%
    23:00 -4°C° 0 mm 3 mps 747 mmHg 85%

    21 January, Monday

    Time Temperature Precipitation Wind Pressure Humidity
    00:00 -4°C° 0 mm 3 mps 748 mmHg 87%
    01:00 -4°C° 0 mm 3 mps 748 mmHg 89%
    02:00 -4°C° 0 mm 2 mps 748 mmHg 88%
    03:00 -4°C° 0 mm 2 mps 748 mmHg 87%
    04:00 -4°C° 0 mm 2 mps 749 mmHg 86%
    05:00 -4°C° 0 mm 2 mps 749 mmHg 86%
    06:00 -5°C° 0 mm 2 mps 750 mmHg 85%
    07:00 -5°C° 0 mm 2 mps 750 mmHg 85%
    08:00 -5°C° 0 mm 2 mps 751 mmHg 82%
    09:00 -4°C° 0 mm 2 mps 751 mmHg 80%
    10:00 -4°C° 0 mm 2 mps 751 mmHg 77%
    11:00 -3°C° 0 mm 2 mps 751 mmHg 73%
    12:00 -3°C° 0 mm 2 mps 752 mmHg 69%
    13:00 -3°C° 0 mm 2 mps 752 mmHg 65%
    14:00 -3°C° 0 mm 2 mps 752 mmHg 66%
    15:00 -1°C° 0 mm 1 mps 752 mmHg 67%
    16:00 -1°C° 0 mm 1 mps 752 mmHg 68%
    17:00 -1°C° 0 mm 1 mps 752 mmHg 69%
    18:00 -2°C° 0 mm 1 mps 752 mmHg 71%
    19:00 -3°C° 0 mm 0 mps 752 mmHg 73%
    20:00 -3°C° 0 mm 0 mps 752 mmHg 73%
    21:00 -3°C° 0 mm 0 mps 752 mmHg 74%
    22:00 -3°C° 0 mm 0 mps 752 mmHg 74%
    23:00 -2°C° 0 mm 1 mps 752 mmHg 75%
    Show more